Location: McCall
(45.0000°N, 116.0000°W)
Time: 07:39:40
(UTC-06:00)

Amateur Radio Satellites - All Passes

Search period start: 01 September 2014 07:09
Search period end: 02 September 2014 07:09
Location: McCall, 45.0000°N, 116.0000°W

Satellite Date Start Highest point End Downlink Frequencies (MHz)
Time Altitude Azimuth
JAS-2 01 Sep 07:09:34 07:14:19 33° 97° (E) 07:19:21 435.800 - 435.900 CW/SSB, 435.910 FM
Uosat F 01 Sep 07:16:46 07:21:03 29° 295° (WNW) 07:25:19 435.120 FM
Hamsat 01 Sep 07:20:43 07:24:54 43° 98° (E) 07:29:00 145.90 MHz
UOSAT-12 01 Sep 07:46:05 07:50:09 29° 318° (NW) 07:54:17 437.025 FM, 437.400 FM
STRAND 1 01 Sep 07:58:31 08:03:33 60° 259° (WSW) 08:08:37 ?
RS-15 01 Sep 08:08:40 08:19:08 51° 112° (ESE) 08:29:27 29.354 - 29.394 USB, Beacon 29.352 USB
Saudisat 1A 01 Sep 08:12:28 08:16:51 64° 238° (WSW) 08:21:12 436.775 MHz
AO-7 01 Sep 08:20:36 08:27:08 27° 309° (NW) 08:33:40 29.400 - 29.500 MHz
SO-67 01 Sep 08:42:02 08:45:25 50° 99° (E) 08:48:47 435.3500 MHz FM
KITSAT 1 01 Sep 08:48:29 08:56:33 67° 52° (NE) 09:04:34 435.175 FM
JAS-2 01 Sep 08:54:46 08:59:27 34° 293° (WNW) 09:04:25 435.800 - 435.900 CW/SSB, 435.910 FM
Hamsat 01 Sep 08:57:23 09:00:34 20° 296° (WNW) 09:03:43 145.90 MHz
HO-68 01 Sep 10:08:45 10:15:14 36° 96° (E) 10:21:41 435.675 MHz FM
ISS 01 Sep 10:09:06 10:10:47 13° 132° (SE) 10:12:28 145.800 FM
SO-67 01 Sep 10:16:48 10:18:03 12° 296° (WNW) 10:19:18 435.3500 MHz FM
RS-15 01 Sep 10:20:41 10:31:26 56° 317° (NW) 10:42:10 29.354 - 29.394 USB, Beacon 29.352 USB
KITSAT 1 01 Sep 10:44:35 10:51:23 31° 253° (WSW) 10:58:10 435.175 FM
UKube-1 01 Sep 10:50:44 10:54:48 38° 98° (E) 10:58:51 145.840 MHz, 145.915 MHz
Oscar 11 01 Sep 10:55:08 10:58:59 29° 96° (E) 11:02:48 145.825 FM, Beacon 2401.500 USB
SO-50 01 Sep 11:04:05 11:07:01 16° 32° (NNE) 11:09:58 436.795 FM
FUNcube-1 01 Sep 11:25:35 11:29:26 27° 95° (E) 11:33:19 145.950 - 145.970 MHz USB
ISS 01 Sep 11:43:44 11:47:04 87° 150° (SSE) 11:50:24 145.800 FM
HO-68 01 Sep 11:56:17 12:03:06 50° 295° (WNW) 12:09:55 435.675 MHz FM
UKube-1 01 Sep 12:27:24 12:30:48 23° 296° (WNW) 12:34:11 145.840 MHz, 145.915 MHz
Oscar 11 01 Sep 12:31:21 12:35:07 29° 293° (WNW) 12:38:51 145.825 FM, Beacon 2401.500 USB
Oscar 19 01 Sep 12:35:26 12:36:14 10° 54° (NE) 12:37:02 437.125 CW, 437.150 USB
RS-15 01 Sep 12:37:51 12:46:52 28° 349° (NNW) 12:55:59 29.354 - 29.394 USB, Beacon 29.352 USB
SO-50 01 Sep 12:43:39 12:48:26 70° 52° (NE) 12:53:16 436.795 FM
MaSat-1 01 Sep 12:50:30 12:53:43 18° 101° (ESE) 12:57:02 437.345 MHz
UOSAT-12 01 Sep 12:53:53 12:56:48 16° 31° (NNE) 12:59:41 437.025 FM, 437.400 FM
FUNcube-1 01 Sep 13:01:45 13:05:51 34° 291° (WNW) 13:10:00 145.950 - 145.970 MHz USB
Oscar 16 01 Sep 13:07:14 13:10:58 21° 61° (ENE) 13:14:43 437.025 USB, Beacon 2401.1428
ITAMSAT 1 01 Sep 13:12:21 13:12:47 10° 53° (NE) 13:13:13 435.822 SSB
Uribyol 2 01 Sep 13:19:51 13:22:05 13° 56° (NE) 13:24:19 436.500 FM
ISS 01 Sep 13:21:07 13:24:06 29° 349° (NNW) 13:27:04 145.800 FM
AO-27 01 Sep 13:38:31 13:41:55 18° 59° (ENE) 13:45:19 436.795 MHz FM
HO-68 01 Sep 13:47:07 13:49:10 11° 317° (NW) 13:51:13 435.675 MHz FM
JAS-1B 01 Sep 13:49:17 13:57:39 37° 61° (ENE) 14:05:07 435.800 - 435.900 CW/SSB
Oscar 19 01 Sep 14:09:28 14:14:35 66° 72° (ENE) 14:19:45 437.125 CW, 437.150 USB
Gurwin Techsat 1B 01 Sep 14:16:58 14:20:32 19° 59° (ENE) 14:24:07 435.225 FM
AO-Echo 01 Sep 14:22:27 14:27:08 42° 69° (ENE) 14:31:42 ?
MaSat-1 01 Sep 14:25:11 14:30:09 70° 300° (WNW) 14:35:20 437.345 MHz
SO-50 01 Sep 14:25:26 14:28:30 17° 250° (WSW) 14:31:36 436.795 FM
UOSAT-12 01 Sep 14:33:04 14:37:49 70° 52° (NE) 14:42:29 437.025 FM, 437.400 FM
Oscar 16 01 Sep 14:44:47 14:49:52 60° 259° (W) 14:55:01 437.025 USB, Beacon 2401.1428
ITAMSAT 1 01 Sep 14:46:11 14:51:17 65° 72° (ENE) 14:56:25 435.822 SSB
RS-15 01 Sep 14:53:56 15:03:35 33° 24° (NNE) 15:13:26 29.354 - 29.394 USB, Beacon 29.352 USB
Uribyol 2 01 Sep 14:55:35 15:00:45 82° 74° (ENE) 15:05:56 436.500 FM
ISS 01 Sep 14:58:33 15:01:28 27° 9° (N) 15:04:23 145.800 FM
TMSAT-1 01 Sep 15:05:48 15:10:31 34° 66° (ENE) 15:15:16 436.925 FM
AO-27 01 Sep 15:15:44 15:20:53 70° 257° (WSW) 15:26:04 436.795 MHz FM
AO-7 01 Sep 15:36:45 15:43:52 33° 55° (NE) 15:50:58 29.400 - 29.500 MHz
JAS-1B 01 Sep 15:38:05 15:47:45 66° 258° (WSW) 15:56:20 435.800 - 435.900 CW/SSB
Oscar 19 01 Sep 15:51:05 15:54:24 17° 270° (W) 15:57:44 437.125 CW, 437.150 USB
Gurwin Techsat 1B 01 Sep 15:54:41 15:59:58 70° 258° (WSW) 16:05:17 435.225 FM
AO-Echo 01 Sep 16:02:00 16:06:03 24° 266° (W) 16:10:02 ?
MaSat-1 01 Sep 16:05:16 16:08:07 15° 320° (NW) 16:10:59 437.345 MHz
UOSAT-12 01 Sep 16:14:31 16:17:26 16° 250° (WSW) 16:20:19 437.025 FM, 437.400 FM
ITAMSAT 1 01 Sep 16:27:54 16:31:14 17° 269° (W) 16:34:36 435.822 SSB
ISS 01 Sep 16:35:14 16:38:34 76° 28° (NNE) 16:41:54 145.800 FM
Uribyol 2 01 Sep 16:38:29 16:40:52 13° 272° (W) 16:43:16 436.500 FM
TMSAT-1 01 Sep 16:45:39 16:50:25 34° 264° (W) 16:55:13 436.925 FM
Uosat F 01 Sep 16:52:49 16:57:46 64° 72° (ENE) 17:02:44 435.120 FM
Sapphire 01 Sep 17:00:35 17:05:16 31° 110° (ESE) 17:09:58 437.095 MHz 1200 baud AX-25 AFSK
RS-15 01 Sep 17:06:52 17:17:58 78° 52° (NE) 17:29:29 29.354 - 29.394 USB, Beacon 29.352 USB
JAS-2 01 Sep 17:25:38 17:29:35 19° 61° (ENE) 17:33:19 435.800 - 435.900 CW/SSB, 435.910 FM
AO-7 01 Sep 17:27:50 17:36:07 67° 255° (WSW) 17:44:26 29.400 - 29.500 MHz
PCSat 01 Sep 17:29:04 17:34:20 57° 116° (ESE) 17:39:40 145.825 MHz
JAS-1B 01 Sep 17:34:47 17:39:29 15° 276° (W) 17:44:01 435.800 - 435.900 CW/SSB
ISS 01 Sep 18:12:43 18:14:58 17° 226° (SW) 18:17:12 145.800 FM
Hamsat 01 Sep 18:15:49 18:19:51 40° 70° (ENE) 18:23:57 145.90 MHz
OPAL 01 Sep 18:19:48 18:25:01 65° 104° (ESE) 18:30:10 ?
Uosat F 01 Sep 18:33:51 18:37:00 17° 269° (W) 18:40:09 435.120 FM
Sapphire 01 Sep 18:43:21 18:48:31 44° 309° (NW) 18:53:43 437.095 MHz 1200 baud AX-25 AFSK
JAS-2 01 Sep 19:08:17 19:14:17 69° 257° (WSW) 19:19:43 435.800 - 435.900 CW/SSB, 435.910 FM
PCSat 01 Sep 19:13:30 19:18:06 28° 316° (NW) 19:22:45 145.825 MHz
SO-67 01 Sep 19:17:20 19:20:08 23° 69° (ENE) 19:22:56 435.3500 MHz FM
RS-15 01 Sep 19:20:05 19:29:20 32° 255° (WSW) 19:38:56 29.354 - 29.394 USB, Beacon 29.352 USB
AO-7 01 Sep 19:27:01 19:30:27 13° 275° (W) 19:33:54 29.400 - 29.500 MHz
Hamsat 01 Sep 19:52:42 19:55:58 21° 268° (W) 19:59:17 145.90 MHz
OPAL 01 Sep 19:59:41 20:03:24 20° 302° (WNW) 20:07:07 ?
STRAND 1 01 Sep 20:07:11 20:11:58 39° 98° (E) 20:16:44 ?
Sapphire 01 Sep 20:31:20 20:33:25 12° 332° (NNW) 20:35:30 437.095 MHz 1200 baud AX-25 AFSK
HO-68 01 Sep 20:39:41 20:45:55 34° 60° (ENE) 20:52:11 435.675 MHz FM
SO-67 01 Sep 20:50:21 20:53:07 22° 266° (W) 20:55:55 435.3500 MHz FM
STRAND 1 01 Sep 21:46:40 21:51:01 29° 295° (WNW) 21:55:22 ?
UKube-1 01 Sep 21:48:03 21:52:09 43° 70° (ENE) 21:56:17 145.840 MHz, 145.915 MHz
Oscar 11 01 Sep 21:52:08 21:55:55 30° 68° (ENE) 21:59:45 145.825 FM, Beacon 2401.500 USB
Saudisat 1A 01 Sep 22:21:42 22:24:56 20° 112° (ESE) 22:28:12 436.775 MHz
FUNcube-1 01 Sep 22:24:21 22:27:51 26° 66° (ENE) 22:31:25 145.950 - 145.970 MHz USB
HO-68 01 Sep 22:26:25 22:33:21 54° 259° (W) 22:40:21 435.675 MHz FM
MaSat-1 01 Sep 22:41:11 22:45:42 47° 56° (NE) 22:49:37 437.345 MHz
KITSAT 1 01 Sep 23:19:33 23:26:35 34° 108° (ESE) 23:33:37 435.175 FM
UKube-1 01 Sep 23:25:27 23:28:34 19° 267° (W) 23:31:42 145.840 MHz, 145.915 MHz
Oscar 11 01 Sep 23:28:22 23:32:06 27° 265° (W) 23:35:51 145.825 FM, Beacon 2401.500 USB
AO-40 01 Sep 23:56:49 03:01:52 24° 130° (SE) 04:22:41 Beacon 2401.320
Saudisat 1A 01 Sep 23:59:53 00:04:11 51° 310° (NW) 00:08:31 436.775 MHz
FUNcube-1 02 Sep 00:00:25 00:04:09 31° 264° (W) 00:07:59 145.950 - 145.970 MHz USB
Sapphire 02 Sep 00:04:21 00:06:03 11° 26° (NNE) 00:07:45 437.095 MHz 1200 baud AX-25 AFSK
MaSat-1 02 Sep 00:19:07 00:22:13 19° 258° (WSW) 00:25:01 437.345 MHz
PCSat 02 Sep 00:32:37 00:36:01 16° 34° (NE) 00:39:23 145.825 MHz
KITSAT 1 02 Sep 01:13:32 01:21:32 63° 309° (NW) 01:29:36 435.175 FM
Saudisat 1A 02 Sep 01:43:03 01:44:48 12° 332° (NNW) 01:46:32 436.775 MHz
Sapphire 02 Sep 01:45:54 01:51:03 41° 50° (NE) 01:56:09 437.095 MHz 1200 baud AX-25 AFSK
PCSat 02 Sep 02:15:01 02:20:27 70° 56° (NE) 02:25:51 145.825 MHz
Oscar 19 02 Sep 02:20:00 02:23:48 20° 91° (E) 02:27:34 437.125 CW, 437.150 USB
AO-Echo 02 Sep 02:30:59 02:31:11 10° 87° (E) 02:31:23 ?
Oscar 16 02 Sep 02:54:32 02:59:29 42° 98° (E) 03:04:23 437.025 USB, Beacon 2401.1428
ITAMSAT 1 02 Sep 02:57:58 03:01:42 20° 92° (E) 03:05:25 435.822 SSB
SO-50 02 Sep 03:03:11 03:05:14 13° 108° (ESE) 03:07:19 436.795 FM
Uribyol 2 02 Sep 03:06:54 03:11:10 25° 94° (E) 03:15:25 436.500 FM
KITSAT 1 02 Sep 03:12:34 03:18:43 23° 334° (NNW) 03:24:53 435.175 FM
TMSAT-1 02 Sep 03:22:01 03:23:20 11° 86° (E) 03:24:39 436.925 FM
JAS-1B 02 Sep 03:23:49 03:29:44 33° 93° (E) 03:34:58 435.800 - 435.900 CW/SSB
AO-27 02 Sep 03:26:57 03:31:44 36° 97° (E) 03:36:29 436.795 MHz FM
Sapphire 02 Sep 03:29:31 03:34:23 34° 249° (WSW) 03:39:14 437.095 MHz 1200 baud AX-25 AFSK
Oscar 19 02 Sep 03:58:24 04:03:30 56° 289° (WNW) 04:08:33 437.125 CW, 437.150 USB
PCSat 02 Sep 03:59:37 04:03:18 19° 254° (WSW) 04:06:58 145.825 MHz
OPAL 02 Sep 03:59:38 04:03:26 22° 59° (ENE) 04:07:17 ?
AO-Echo 02 Sep 04:05:56 04:10:39 89° 282° (WNW) 04:15:23 ?
Gurwin Techsat 1B 02 Sep 04:09:01 04:14:02 41° 98° (E) 04:19:01 435.225 FM
Oscar 16 02 Sep 04:34:16 04:38:39 28° 296° (WNW) 04:43:00 437.025 USB, Beacon 2401.1428
ITAMSAT 1 02 Sep 04:36:28 04:41:34 57° 289° (WNW) 04:46:38 435.822 SSB
SO-50 02 Sep 04:40:38 04:45:07 79° 306° (NW) 04:49:45 436.795 FM
Uribyol 2 02 Sep 04:45:54 04:50:50 45° 291° (WNW) 04:55:45 436.500 FM
UOSAT-12 02 Sep 04:48:51 04:50:50 13° 108° (ESE) 04:52:50 437.025 FM, 437.400 FM
TMSAT-1 02 Sep 04:58:44 05:04:04 83° 104° (ESE) 05:09:22 436.925 FM
Uosat F 02 Sep 04:59:45 05:02:56 17° 91° (E) 05:06:05 435.120 FM
AO-27 02 Sep 05:06:37 05:11:10 32° 295° (WNW) 05:15:43 436.795 MHz FM
KITSAT 1 02 Sep 05:12:53 05:17:40 16° 5° (N) 05:22:27 435.175 FM
JAS-1B 02 Sep 05:14:17 05:20:35 41° 296° (WNW) 05:26:06 435.800 - 435.900 CW/SSB
AO-7 02 Sep 05:27:22 05:34:58 38° 98° (E) 05:42:29 29.400 - 29.500 MHz
OPAL 02 Sep 05:36:54 05:41:54 58° 257° (WSW) 05:47:00 ?
AO-Echo 02 Sep 05:47:00 05:48:43 12° 303° (WNW) 05:50:26 ?
Gurwin Techsat 1B 02 Sep 05:49:19 05:53:51 29° 296° (WNW) 05:58:22 435.225 FM
STRAND 1 02 Sep 05:50:44 05:51:48 11° 54° (NE) 05:52:51 ?
JAS-2 02 Sep 06:17:13 06:18:45 11° 88° (E) 06:20:18 435.800 - 435.900 CW/SSB, 435.910 FM
SO-50 02 Sep 06:23:33 06:26:28 16° 328° (NNW) 06:29:25 436.795 FM
UOSAT-12 02 Sep 06:25:38 06:30:16 86° 306° (NW) 06:35:01 437.025 FM, 437.400 FM
Uosat F 02 Sep 06:37:12 06:42:10 64° 288° (WNW) 06:47:06 435.120 FM
TMSAT-1 02 Sep 06:40:13 06:43:19 16° 302° (WNW) 06:46:24 436.925 FM
Saudisat 1A 02 Sep 06:45:28 06:49:29 32° 44° (NE) 06:53:28 436.775 MHz
